ARN106 CYGR-CYGP

Flight info

Callsign ARN106
Flight time 0h 29m
Altitude 16000
Route DCT
Aircraft RJ1H/M-WX/S

Departure

Time 2026-05-06 18:48
Airport Îles-de-la-Madeleine Airport (CYGR)

Arrival

Time 2026-05-06 19:18
Airport Michel-Pouliot Gaspé Airport (CYGP)
Time Latitude Longitude Altitude Speed Heading
2026-05-06 18:41 47.42438 -61.77542 31 ft 0 kts 181°
2026-05-06 18:44 47.42437 -61.77542 31 ft 1 kts 189°
2026-05-06 18:44 47.42447 -61.77583 30 ft 9 kts 301°
2026-05-06 18:44 47.42493 -61.77661 28 ft 10 kts 317°
2026-05-06 18:44 47.42546 -61.77734 27 ft 11 kts 317°
2026-05-06 18:45 47.42603 -61.77705 27 ft 10 kts 52°
2026-05-06 18:45 47.42660 -61.77597 26 ft 16 kts 52°
2026-05-06 18:45 47.42729 -61.77468 28 ft 16 kts 52°
2026-05-06 18:45 47.42772 -61.77349 27 ft 9 kts 65°
2026-05-06 18:46 47.42789 -61.77349 26 ft 3 kts 262°
2026-05-06 18:46 47.42787 -61.77354 26 ft 0 kts 236°
2026-05-06 18:47 47.42625 -61.77668 27 ft 77 kts 232°
2026-05-06 18:48 47.42162 -61.78554 49 ft 136 kts 229°
2026-05-06 18:48 47.41545 -61.79738 426 ft 156 kts 226°
2026-05-06 18:48 47.40927 -61.81008 1373 ft 143 kts 237°
2026-05-06 18:48 47.40626 -61.82350 2339 ft 145 kts 264°
2026-05-06 18:49 47.41123 -61.83787 3079 ft 168 kts 289°
2026-05-06 18:49 47.41803 -61.85329 3633 ft 192 kts 291°
2026-05-06 18:49 47.42624 -61.87036 4345 ft 216 kts 293°
2026-05-06 18:49 47.43602 -61.88858 5069 ft 235 kts 296°
2026-05-06 18:50 47.44678 -61.90780 5885 ft 250 kts 298°
2026-05-06 18:50 47.45827 -61.92765 6792 ft 257 kts 300°
2026-05-06 18:50 47.47020 -61.94770 7725 ft 263 kts 300°
2026-05-06 18:50 47.48238 -61.96812 8652 ft 267 kts 301°
2026-05-06 18:51 47.49490 -61.98894 9451 ft 277 kts 302°
2026-05-06 18:51 47.50794 -62.01094 10026 ft 292 kts 302°
2026-05-06 18:51 47.52170 -62.03409 10537 ft 306 kts 302°
2026-05-06 18:51 47.53608 -62.05821 10959 ft 318 kts 303°
2026-05-06 18:52 47.55058 -62.08263 11522 ft 321 kts 303°
2026-05-06 18:52 47.56563 -62.10791 12100 ft 325 kts 303°
2026-05-06 18:52 47.58037 -62.13280 12652 ft 327 kts 302°
2026-05-06 18:52 47.59526 -62.15846 13225 ft 329 kts 302°
2026-05-06 18:53 47.61029 -62.18421 13761 ft 331 kts 302°
2026-05-06 18:53 47.62545 -62.21011 14184 ft 334 kts 302°
2026-05-06 18:53 47.64074 -62.23629 14605 ft 337 kts 302°
2026-05-06 18:53 47.65616 -62.26270 15022 ft 340 kts 302°
2026-05-06 18:54 47.67169 -62.28935 15429 ft 343 kts 302°
2026-05-06 18:54 47.68732 -62.31624 15827 ft 345 kts 302°
2026-05-06 18:54 47.70306 -62.34333 16079 ft 347 kts 302°
2026-05-06 18:54 47.71872 -62.37026 15968 ft 342 kts 302°
2026-05-06 18:55 47.73425 -62.39697 15936 ft 341 kts 301°
2026-05-06 18:55 47.74959 -62.42388 15935 ft 341 kts 301°
2026-05-06 18:55 47.76504 -62.45076 15971 ft 342 kts 302°
2026-05-06 18:55 47.78044 -62.47731 15946 ft 339 kts 302°
2026-05-06 18:56 47.79569 -62.50402 15940 ft 339 kts 301°
2026-05-06 18:56 47.81105 -62.53076 15925 ft 340 kts 302°
2026-05-06 18:56 47.82646 -62.55740 15933 ft 340 kts 302°
2026-05-06 18:56 47.84183 -62.58413 15926 ft 339 kts 301°
2026-05-06 18:57 47.85704 -62.61098 15931 ft 340 kts 301°
2026-05-06 18:57 47.87243 -62.63772 15927 ft 341 kts 302°
2026-05-06 18:57 47.88789 -62.66453 15926 ft 341 kts 302°
2026-05-06 18:57 47.90323 -62.69138 15921 ft 340 kts 301°
2026-05-06 18:58 47.91846 -62.71835 15925 ft 340 kts 301°
2026-05-06 18:58 47.93386 -62.74515 15957 ft 341 kts 301°
2026-05-06 18:58 47.94938 -62.77226 15938 ft 345 kts 301°
2026-05-06 18:58 47.96481 -62.79953 15929 ft 343 kts 301°
2026-05-06 18:59 47.98020 -62.82676 15925 ft 343 kts 301°
2026-05-06 18:59 47.99557 -62.85404 15923 ft 343 kts 301°
2026-05-06 18:59 48.01096 -62.88131 15915 ft 344 kts 301°
2026-05-06 18:59 48.02652 -62.90842 15915 ft 344 kts 301°
2026-05-06 19:00 48.04194 -62.93566 15916 ft 343 kts 301°
2026-05-06 19:00 48.05736 -62.96297 15917 ft 344 kts 301°
2026-05-06 19:00 48.07273 -62.99029 15913 ft 344 kts 301°
2026-05-06 19:00 48.08315 -63.00880 15913 ft 344 kts 301°
2026-05-06 19:01 48.10374 -63.04492 15913 ft 344 kts 301°
2026-05-06 19:01 48.11910 -63.07227 15912 ft 344 kts 301°
2026-05-06 19:01 48.13448 -63.09971 15911 ft 344 kts 301°
2026-05-06 19:01 48.14982 -63.12714 15902 ft 344 kts 301°
2026-05-06 19:02 48.16539 -63.15449 15902 ft 345 kts 301°
2026-05-06 19:02 48.18082 -63.18191 15902 ft 344 kts 301°
2026-05-06 19:02 48.19620 -63.20937 15902 ft 344 kts 301°
2026-05-06 19:02 48.21157 -63.23690 15902 ft 344 kts 301°
2026-05-06 19:03 48.22690 -63.26440 15902 ft 344 kts 301°
2026-05-06 19:03 48.24225 -63.29190 15903 ft 344 kts 301°
2026-05-06 19:03 48.25759 -63.31946 15906 ft 344 kts 301°
2026-05-06 19:03 48.27294 -63.34701 15933 ft 344 kts 301°
2026-05-06 19:04 48.28830 -63.37455 15917 ft 343 kts 301°
2026-05-06 19:04 48.30364 -63.40197 15906 ft 343 kts 301°
2026-05-06 19:04 48.31897 -63.42942 15901 ft 343 kts 301°
2026-05-06 19:04 48.33433 -63.45688 15898 ft 343 kts 301°
2026-05-06 19:05 48.34970 -63.48440 15897 ft 343 kts 301°
2026-05-06 19:05 48.36505 -63.51190 15899 ft 343 kts 301°
2026-05-06 19:05 48.38042 -63.53936 15893 ft 343 kts 301°
2026-05-06 19:05 48.39576 -63.56687 15894 ft 343 kts 301°
2026-05-06 19:06 48.41096 -63.59444 15891 ft 343 kts 300°
2026-05-06 19:06 48.42610 -63.62218 15884 ft 343 kts 300°
2026-05-06 19:06 48.44141 -63.64978 15891 ft 343 kts 301°
2026-05-06 19:06 48.45668 -63.67736 15910 ft 343 kts 301°
2026-05-06 19:07 48.47189 -63.70498 15894 ft 341 kts 301°
2026-05-06 19:07 48.47976 -63.71924 15533 ft 340 kts 301°
2026-05-06 19:07 48.49386 -63.74481 14952 ft 337 kts 300°
2026-05-06 19:07 48.50872 -63.77191 14369 ft 333 kts 300°
2026-05-06 19:08 48.52342 -63.79866 13774 ft 330 kts 300°
2026-05-06 19:08 48.53795 -63.82535 13100 ft 328 kts 300°
2026-05-06 19:08 48.55241 -63.85176 12419 ft 325 kts 300°
2026-05-06 19:08 48.56682 -63.87794 11763 ft 323 kts 299°
2026-05-06 19:09 48.58047 -63.90250 10487 ft 305 kts 298°
2026-05-06 19:09 48.58953 -63.91914 10092 ft 308 kts 298°
2026-05-06 19:09 48.60288 -63.94338 9956 ft 290 kts 298°
2026-05-06 19:09 48.61536 -63.96585 9174 ft 274 kts 297°
2026-05-06 19:10 48.62731 -63.98801 8158 ft 271 kts 297°
2026-05-06 19:10 48.63911 -64.01014 7148 ft 270 kts 297°
2026-05-06 19:10 48.65087 -64.03222 6165 ft 270 kts 299°
2026-05-06 19:10 48.66272 -64.05462 5386 ft 276 kts 301°
2026-05-06 19:11 48.67473 -64.07718 4973 ft 276 kts 303°
2026-05-06 19:11 48.68690 -64.09966 4540 ft 273 kts 304°
2026-05-06 19:11 48.69873 -64.12106 4025 ft 254 kts 305°
2026-05-06 19:11 48.71091 -64.13878 3640 ft 237 kts 328°
2026-05-06 19:12 48.72628 -64.14716 3652 ft 231 kts 341°
2026-05-06 19:12 48.74185 -64.15146 3666 ft 225 kts 353°
2026-05-06 19:12 48.75711 -64.15353 3356 ft 219 kts 349°
2026-05-06 19:12 48.77199 -64.15933 2781 ft 218 kts 326°
2026-05-06 19:13 48.78113 -64.17618 2503 ft 204 kts 286°
2026-05-06 19:13 48.78526 -64.19556 2366 ft 186 kts 282°
2026-05-06 19:13 48.78795 -64.21383 2353 ft 171 kts 275°
2026-05-06 19:13 48.78931 -64.23160 2351 ft 164 kts 272°
2026-05-06 19:14 48.79022 -64.24772 2410 ft 146 kts 267°
2026-05-06 19:14 48.78978 -64.26262 2446 ft 140 kts 260°
2026-05-06 19:14 48.78884 -64.27753 2369 ft 143 kts 261°
2026-05-06 19:14 48.78793 -64.29271 2246 ft 146 kts 261°
2026-05-06 19:15 48.78696 -64.30790 2136 ft 143 kts 261°
2026-05-06 19:15 48.78606 -64.32288 2099 ft 145 kts 262°
2026-05-06 19:15 48.78520 -64.33818 1998 ft 144 kts 262°
2026-05-06 19:15 48.78393 -64.35329 1873 ft 145 kts 259°
2026-05-06 19:16 48.78246 -64.36846 1727 ft 146 kts 259°
2026-05-06 19:16 48.78131 -64.38373 1478 ft 146 kts 260°
2026-05-06 19:16 48.78023 -64.39899 1192 ft 141 kts 263°
2026-05-06 19:16 48.77937 -64.41335 872 ft 134 kts 263°
2026-05-06 19:17 48.77857 -64.42720 638 ft 129 kts 264°
2026-05-06 19:17 48.77770 -64.44041 492 ft 123 kts 261°
2026-05-06 19:17 48.77693 -64.45336 334 ft 123 kts 264°
2026-05-06 19:17 48.77605 -64.46619 184 ft 123 kts 266°
2026-05-06 19:18 48.77520 -64.47879 112 ft 112 kts 263°
2026-05-06 19:18 48.77462 -64.48717 118 ft 42 kts 264°
2026-05-06 19:18 48.77460 -64.48883 117 ft 3 kts 203°
2026-05-06 19:18 48.77458 -64.48833 117 ft 9 kts 85°
2026-05-06 19:19 48.77467 -64.48673 117 ft 21 kts 85°
2026-05-06 19:19 48.77486 -64.48379 112 ft 30 kts 84°
2026-05-06 19:19 48.77506 -64.48081 111 ft 28 kts 85°
2026-05-06 19:19 48.77526 -64.47801 109 ft 26 kts 84°
2026-05-06 19:20 48.77562 -64.47583 106 ft 16 kts 18°
2026-05-06 19:20 48.77672 -64.47599 104 ft 15 kts 354°
2026-05-06 19:20 48.77744 -64.47543 103 ft 3 kts
2026-05-06 19:20 48.77747 -64.47553 102 ft 0 kts 264°